Location: Écuvilly
(49.6505°N, 2.9206°E)
Time: 06:08:23
(UTC+00:00)

ERS-1 - Pass Details

Date: 17 November 2025
Orbit: 737 x 784 km, 98.8° (Epoch: 10 December)

Event Time Altitude Azimuth Distance (km) Brightness Sun altitude
Rises 17:10:54 0° 158° (SSE) 3,255 7.7 -11.0°
Reaches altitude 10° 17:13:13 10° 157° (SSE) 2,327 6.9 -11.3°
Maximum altitude 17:18:21 78° 72° (ENE) 798 4.4 -12.1°
Drops below altitude 10° 17:23:28 10° 347° (NNW) 2,318 7.0 -12.9°
Sets 17:25:46 0° 347° (NNW) 3,242 7.7 -13.3°
